Date String (YYYY-MM-DD hh:mm:ss) UTC,Instrument flags,absolute air pressure of the measurement (hPa),sample flow rate (lpm),inlet stack bypass flow (lpm),air temperature of the measurement (°C),ambient temperature measured by the external sensor (°C),aerosol sample conditioner tube jacket temperature (°C),OPC LED temperature (°C),internal box temperature (°C),relative humidity of the measurement (%),span deviation,mass concentration of particles derived from Lorenz-Mie calculation of OPC scattering (μg/m³),mass concentration of particles derived from Lorenz-Mie calculation of OPC scattering (μg/m³),mass concentration of particles derived from Lorenz-Mie calculation of OPC scattering (μg/m³)
DateTimeUTC,F1_M11,P_M11,Q1_M11,Q2_M11,T1_M11,T2_M11,T3_M11,T4_M11,T5_M11,U1_M11,ZSPAN_M11,X0_M11,X2_M11,X1_M11
2024-04-15 19:00:00,SystemResetWarning,0814.3,4.99,000.00,024.6,023.7,000.0,032.8,026.5,009.1,0000.0,0013.95,0003.71,0002.41
2024-04-15 19:01:00,SystemResetWarning,0814.3,5.00,000.00,024.7,023.9,000.0,032.8,026.6,009.2,0000.0,0013.86,0003.66,0002.41
2024-04-15 19:02:00,SystemResetWarning,0814.3,5.00,000.00,024.8,024.1,000.0,032.9,026.8,008.8,0000.0,0013.42,0003.67,0002.41
2024-04-15 19:03:00,SystemResetWarning,0814.3,5.00,000.00,024.9,024.3,000.0,032.9,026.9,008.9,0000.0,0012.71,0003.71,0002.43
2024-04-15 19:04:00,SystemResetWarning,0814.2,5.01,000.00,025.0,024.5,000.0,033.0,026.9,008.9,0000.0,0012.66,0003.71,0002.44
2024-04-15 19:05:00,SystemResetWarning,0814.2,5.01,000.00,025.1,024.6,000.0,033.0,027.0,008.8,0000.0,0012.00,0003.67,0002.46
2024-04-15 19:06:00,SystemResetWarning,0814.2,4.98,000.00,025.1,024.6,000.0,033.1,027.0,009.1,0000.0,0011.20,0003.66,0002.48
2024-04-15 19:07:00,SystemResetWarning,0814.1,5.00,000.00,025.0,023.0,000.0,033.2,026.0,009.3,0000.0,0009.69,0003.65,0002.48
2024-04-15 19:08:00,SystemResetWarning,0814.0,5.01,000.00,024.5,021.5,000.0,033.2,025.1,010.0,0000.0,0010.29,0003.69,0002.50
2024-04-15 19:09:00,SystemResetWarning,0814.0,5.01,000.00,024.3,021.8,000.0,033.1,025.2,009.9,0000.0,0010.92,0003.72,0002.53
2024-04-15 19:10:00,SystemResetWarning,0814.0,5.00,000.00,024.3,022.2,000.0,033.0,025.4,009.8,0000.0,0011.17,0003.82,0002.57
2024-04-15 19:11:00,SystemResetWarning,0814.0,5.00,000.00,024.4,022.6,000.0,032.9,025.8,010.0,0000.0,0011.28,0003.84,0002.59
2024-04-15 19:12:00,SystemResetWarning,0814.1,5.01,000.00,024.4,023.0,000.0,032.9,026.1,010.1,0000.0,0012.45,0003.90,0002.63
2024-04-15 19:13:00,SystemResetWarning,0814.1,5.00,000.00,024.5,023.3,000.0,032.9,026.3,009.7,0000.0,0013.32,0003.93,0002.65
2024-04-15 19:14:00,SystemResetWarning,0814.0,5.00,000.00,024.6,023.6,000.0,032.9,026.5,009.5,0000.0,0013.27,0003.94,0002.67
2024-04-15 19:15:00,SystemResetWarning,0813.9,5.00,000.00,024.7,023.8,000.0,032.9,026.6,009.3,0000.0,0013.26,0003.97,0002.69
2024-04-15 19:16:00,SystemResetWarning,0813.9,5.01,000.00,024.8,024.1,000.0,032.9,026.7,009.2,0000.0,0013.88,0004.01,0002.70
2024-04-15 19:17:00,SystemResetWarning,0813.9,5.00,000.00,024.9,024.3,000.0,033.0,026.8,009.2,0000.0,0014.30,0004.05,0002.71
2024-04-15 19:18:00,SystemResetWarning,0813.8,5.00,000.00,025.0,024.5,000.0,033.0,027.0,009.2,0000.0,0015.04,0004.06,0002.71
2024-04-15 19:19:00,SystemResetWarning,0813.7,5.00,000.00,025.1,024.7,000.0,033.0,027.1,009.1,0000.0,0015.22,0004.06,0002.71
2024-04-15 19:20:00,SystemResetWarning,0813.6,4.99,000.00,025.2,024.8,000.0,033.1,027.1,009.2,0000.0,0015.45,0004.08,0002.68
2024-04-15 19:21:00,SystemResetWarning,0813.6,5.00,000.00,025.1,023.9,000.0,033.2,026.5,009.0,0000.0,0015.80,0004.04,0002.65
2024-04-15 19:22:00,SystemResetWarning,0813.5,5.00,000.00,024.7,022.0,000.0,033.2,025.4,009.6,0000.0,0016.46,0004.07,0002.64
2024-04-15 19:23:00,SystemResetWarning,0813.5,5.02,000.00,024.4,021.7,000.0,033.2,025.2,008.8,0000.0,0015.31,0004.02,0002.62
2024-04-15 19:24:00,SystemResetWarning,0813.5,4.99,000.00,024.4,022.1,000.0,033.1,025.4,006.4,0000.0,0013.83,0003.98,0002.55
2024-04-15 19:25:00,SystemResetWarning,0813.5,5.00,000.00,024.4,022.5,000.0,033.0,025.8,006.7,0000.0,0014.09,0003.93,0002.48
2024-04-15 19:26:00,SystemResetWarning,0813.6,5.01,000.00,024.5,022.9,000.0,032.9,026.1,006.6,0000.0,0014.44,0003.88,0002.39
2024-04-15 19:27:00,SystemResetWarning,0813.6,5.00,000.00,024.5,023.2,000.0,032.9,026.3,006.4,0000.0,0015.13,0003.82,0002.31
2024-04-15 19:28:00,SystemResetWarning,0813.6,4.99,000.00,024.6,023.5,000.0,032.9,026.5,007.0,0000.0,0015.29,0003.73,0002.23
2024-04-15 19:29:00,SystemResetWarning,0813.6,5.00,000.00,024.7,023.8,000.0,032.9,026.6,006.5,0000.0,0015.16,0003.65,0002.14
2024-04-15 19:30:00,SystemResetWarning,0813.6,5.01,000.00,024.8,024.0,000.0,032.9,026.7,006.0,0000.0,0015.06,0003.60,0002.07
2024-04-15 19:31:00,SystemResetWarning,0813.6,5.01,000.00,024.9,024.2,000.0,033.0,026.8,006.1,0000.0,0014.30,0003.56,0001.99
2024-04-15 19:32:00,SystemResetWarning,0813.6,4.99,000.00,025.0,024.4,000.0,033.0,026.9,006.2,0000.0,0015.26,0003.48,0001.90
2024-04-15 19:33:00,SystemResetWarning,0813.6,5.00,000.00,025.1,024.5,000.0,033.0,027.0,006.3,0000.0,0015.46,0003.37,0001.81
2024-04-15 19:34:00,SystemResetWarning,0813.6,5.00,000.00,025.1,024.7,000.0,033.1,027.1,005.5,0000.0,0015.56,0003.33,0001.71
2024-04-15 19:35:00,SystemResetWarning,0813.6,4.99,000.00,025.2,024.4,000.0,033.2,026.9,005.7,0000.0,0015.61,0003.25,0001.63
2024-04-15 19:36:00,SystemResetWarning,0813.5,5.01,000.00,024.9,022.6,000.0,033.2,025.9,006.1,0000.0,0016.09,0003.21,0001.61
2024-04-15 19:37:00,SystemResetWarning,0813.4,5.01,000.00,024.7,022.4,000.0,033.2,025.6,005.3,0000.0,0015.69,0003.19,0001.61
2024-04-15 19:38:00,SystemResetWarning,0813.4,5.01,000.00,024.6,022.7,000.0,033.1,025.9,005.4,0000.0,0015.33,0003.18,0001.60
2024-04-15 19:39:00,SystemResetWarning,0813.4,5.00,000.00,024.7,023.0,000.0,033.1,026.2,005.6,0000.0,0014.58,0003.15,0001.57
2024-04-15 19:40:00,SystemResetWarning,0813.4,5.00,000.00,024.7,023.4,000.0,033.1,026.4,005.8,0000.0,0013.75,0003.13,0001.56
2024-04-15 19:41:00,SystemResetWarning,0813.4,5.00,000.00,024.8,023.7,000.0,033.1,026.6,006.0,0000.0,0013.25,0003.11,0001.55
2024-04-15 19:42:00,SystemResetWarning,0813.4,4.99,000.00,024.9,023.9,000.0,033.1,026.7,005.8,0000.0,0012.64,0003.02,0001.53
2024-04-15 19:43:00,SystemResetWarning,0813.4,4.99,000.00,025.0,024.1,000.0,033.1,026.8,005.7,0000.0,0011.93,0003.01,0001.54
2024-04-15 19:44:00,SystemResetWarning,0813.4,5.01,000.00,025.0,024.3,000.0,033.1,026.9,005.6,0000.0,0010.72,0003.01,0001.52
2024-04-15 19:45:00,SystemResetWarning,0813.4,5.02,000.00,025.1,024.5,000.0,033.1,027.0,006.0,0000.0,0009.94,0003.00,0001.51
2024-04-15 19:46:00,SystemResetWarning,0813.3,4.98,000.00,025.2,024.6,000.0,033.2,027.1,006.7,0000.0,0010.33,0003.06,0001.51
2024-04-15 19:47:00,SystemResetWarning,0813.3,4.99,000.00,025.3,024.7,000.0,033.2,027.2,006.1,0000.0,0010.24,0003.12,0001.50
2024-04-15 19:48:00,SystemResetWarning,0813.3,5.00,000.00,025.3,024.8,000.0,033.3,027.2,005.5,0000.0,0009.73,0003.09,0001.47
2024-04-15 19:49:00,SystemResetWarning,0813.2,5.00,000.00,025.2,023.2,000.0,033.4,026.3,005.2,0000.0,0010.17,0003.09,0001.45
2024-04-15 19:50:00,SystemResetWarning,0813.1,5.01,000.00,024.7,021.6,000.0,033.4,025.3,005.9,0000.0,0010.55,0003.07,0001.45
2024-04-15 19:51:00,SystemResetWarning,0813.1,5.01,000.00,024.5,021.8,000.0,033.3,025.3,005.6,0000.0,0010.61,0003.09,0001.45
2024-04-15 19:52:00,SystemResetWarning,0813.0,5.00,000.00,024.5,022.2,000.0,033.2,025.6,005.4,0000.0,0011.31,0003.12,0001.45
2024-04-15 19:53:00,SystemResetWarning,0813.1,5.00,000.00,024.5,022.6,000.0,033.1,025.9,005.5,0000.0,0011.59,0003.15,0001.45
2024-04-15 19:54:00,SystemResetWarning,0813.1,5.00,000.00,024.6,022.9,000.0,033.1,026.2,005.5,0000.0,0011.40,0003.15,0001.43
2024-04-15 19:55:00,SystemResetWarning,0813.0,5.00,000.00,024.6,023.3,000.0,033.0,026.4,005.2,0000.0,0011.19,0003.18,0001.45
2024-04-15 19:56:00,SystemResetWarning,0813.0,5.00,000.00,024.7,023.6,000.0,033.0,026.5,005.6,0000.0,0010.86,0003.16,0001.46
2024-04-15 19:57:00,SystemResetWarning,0813.0,4.99,000.00,024.8,023.8,000.0,033.0,026.7,005.4,0000.0,0010.50,0003.14,0001.47
2024-04-15 19:58:00,SystemResetWarning,0813.0,5.00,000.00,024.9,024.1,000.0,033.1,026.8,005.8,0000.0,0009.87,0003.09,0001.46
2024-04-15 19:59:00,SystemResetWarning,0813.0,5.00,000.00,025.0,024.3,000.0,033.1,026.9,006.1,0000.0,0010.64,0003.13,0001.48
